This is the latest recevied weather packets stored in our database for station/object AB0TJ. If no packets are shown the sender has not sent any weather packets the latest 10 day(s).
| Time | Temp. | Humidity | Pressure | Rain* | Wind** | Luminosity | Snow |
|---|---|---|---|---|---|---|---|
| 1777897689 | 12.22° C | 62% | 1012.5 hPa | 0 mm | - | 6 W/m² | - |
| 1777897204 | 12.78° C | 61% | 1012.5 hPa | 0 mm | - | 3 W/m² | - |
| 1777896663 | 12.78° C | 59% | 1012.5 hPa | 0 mm | - | 1 W/m² | - |
| 1777896134 | 12.78° C | 59% | 1012.4 hPa | 0 mm | - | 0 W/m² | - |
| 1777895589 | 12.78° C | 60% | 1012.6 hPa | 0 mm | - | 0 W/m² | - |
| 1777895064 | 12.78° C | 60% | 1012.4 hPa | 0 mm | - | 0 W/m² | - |
| 1777894564 | 13.33° C | 60% | 1012.4 hPa | 0 mm | - | 0 W/m² | - |
| 1777894019 | 13.33° C | 60% | 1012.6 hPa | 0 mm | - | 0 W/m² | - |
| 1777893429 | 13.33° C | 59% | 1012.8 hPa | 0 mm | - | 0 W/m² | - |
| 1777892879 | 13.89° C | 59% | 1012.8 hPa | 0 mm | - | 0 W/m² | - |
| 1777892389 | 13.89° C | 59% | 1012.9 hPa | 0 mm | - | 0 W/m² | - |
| 1777891872 | 13.89° C | 57% | 1012.6 hPa | 0 mm | - | 0 W/m² | - |
| 1777891383 | 14.44° C | 57% | 1012.3 hPa | 0 mm | - | 0 W/m² | - |
| 1777890864 | 14.44° C | 57% | 1012.3 hPa | 0 mm | - | 0 W/m² | - |
| 1777890373 | 15° C | 56% | 1012.8 hPa | 0 mm | - | 0 W/m² | - |
| 1777889779 | 15.56° C | 54% | 1013 hPa | 0 mm | - | 0 W/m² | - |
| 1777889189 | 15.56° C | 49% | 1013.2 hPa | 0 mm | - | 0 W/m² | - |
| 1777888672 | 16.11° C | 47% | 1013 hPa | 0 mm | - | 0 W/m² | - |
| 1777888181 | 16.67° C | 48% | 1013 hPa | 0 mm | - | 0 W/m² | - |
| 1777887592 | 17.22° C | 45% | 1012.7 hPa | 0 mm | - | 0 W/m² | - |
| 1777887099 | 17.22° C | 39% | 1012.4 hPa | 0 mm | - | 0 W/m² | - |
| 1777886617 | 17.22° C | 37% | 1012.3 hPa | 0 mm | - | 0 W/m² | - |
| 1777886133 | 17.22° C | 36% | 1011.9 hPa | 0 mm | - | 0 W/m² | - |
| 1777885623 | 17.78° C | 37% | 1012.2 hPa | 0 mm | - | 0 W/m² | - |
| 1777885139 | 17.78° C | 36% | 1012.1 hPa | 0 mm | - | 0 W/m² | - |
* Rain latest hour (hover to see other rain measurements)
** Current wind speed in m/s (hover to see current wind gust speed)